Location: *
(58.7167°N, 26.1833°E)
Time: 23:11:46
(UTC+00:00)

Terra - Pass Details

Date: 25 August 2019
Orbit: 701 x 703 km, 98.2° (Epoch: 22 September)

Event Time Altitude Azimuth Distance (km) Brightness Sun altitude
Exits shadow 19:14:22 16° 138° (SE) 1,803 3.3 -11.4°
Maximum altitude 19:18:03 54° 65° (ENE) 856 2.1 -11.8°
Drops below altitude 10° 19:22:43 10° 349° (N) 2,187 5.3 -12.2°
Sets 19:25:01 0° 345° (NNW) 3,109 6.3 -12.4°
